Time,TemperatureF,DewpointF,PressureIn,WindDirection,WindDirectionDegrees,WindSpeedMPH,WindSpeedGustMPH,Humidity,HourlyPrecipIn,Conditions,Clouds,dailyrainin,SoftwareType,DateUTC
2013-03-15 00:02:00,37.2,25.7,30.26,SE,135,1.0,2.0,63,0.00,,,0.00,meteohub,2013-03-15 07:02:00,
2013-03-15 00:07:00,37.0,26.1,30.26,SE,135,1.0,3.0,64,0.00,,,0.00,meteohub,2013-03-15 07:07:00,
2013-03-15 00:12:00,37.0,26.1,30.26,SE,135,1.0,3.0,64,0.00,,,0.00,meteohub,2013-03-15 07:12:00,
2013-03-15 00:18:00,37.0,26.1,30.25,SE,135,2.0,3.0,64,0.00,,,0.00,meteohub,2013-03-15 07:18:00,
2013-03-15 00:23:00,36.7,25.7,30.25,SE,135,0.0,2.0,64,0.00,,,0.00,meteohub,2013-03-15 07:23:00,
2013-03-15 00:28:00,36.1,25.5,30.25,SE,135,2.0,2.0,65,0.00,,,0.00,meteohub,2013-03-15 07:28:00,
2013-03-15 00:33:00,35.6,25.3,30.25,SE,135,2.0,2.0,66,0.00,,,0.00,meteohub,2013-03-15 07:33:00,
2013-03-15 00:38:00,35.4,25.5,30.25,SE,135,2.0,2.0,67,0.00,,,0.00,meteohub,2013-03-15 07:38:00,
2013-03-15 00:43:00,35.2,25.3,30.25,SE,135,0.0,2.0,67,0.00,,,0.00,meteohub,2013-03-15 07:43:00,
2013-03-15 00:48:00,35.2,25.3,30.25,SE,135,2.0,2.0,67,0.00,,,0.00,meteohub,2013-03-15 07:48:00,
2013-03-15 00:53:00,35.2,25.3,30.25,SE,135,0.0,2.0,67,0.00,,,0.00,meteohub,2013-03-15 07:53:00,
2013-03-15 00:58:00,35.4,25.5,30.25,SE,135,0.0,2.0,67,0.00,,,0.00,meteohub,2013-03-15 07:58:00,
2013-03-15 01:03:00,35.4,25.5,30.25,SE,135,1.0,2.0,67,0.00,,,0.00,meteohub,2013-03-15 08:03:00,
2013-03-15 01:08:00,35.2,25.3,30.24,SE,135,1.0,2.0,67,0.00,,,0.00,meteohub,2013-03-15 08:08:00,
2013-03-15 01:13:00,35.1,25.2,30.24,SE,135,1.0,2.0,67,0.00,,,0.00,meteohub,2013-03-15 08:13:00,
2013-03-15 01:18:00,35.2,25.0,30.24,SE,135,0.0,2.0,66,0.00,,,0.00,meteohub,2013-03-15 08:18:00,
2013-03-15 01:23:00,35.2,24.3,30.24,SE,135,0.0,1.0,64,0.00,,,0.00,meteohub,2013-03-15 08:23:00,
2013-03-15 01:28:00,35.1,24.8,30.24,SE,135,1.0,1.0,66,0.00,,,0.00,meteohub,2013-03-15 08:28:00,
2013-03-15 01:33:00,35.1,24.8,30.24,SE,135,0.0,2.0,66,0.00,,,0.00,meteohub,2013-03-15 08:33:00,
2013-03-15 01:38:00,34.7,24.8,30.24,SE,135,0.0,2.0,67,0.00,,,0.00,meteohub,2013-03-15 08:38:00,
2013-03-15 01:43:00,34.7,24.8,30.23,SE,135,0.0,2.0,67,0.00,,,0.00,meteohub,2013-03-15 08:43:00,
2013-03-15 01:48:00,34.5,24.6,30.23,SE,135,0.0,1.0,67,0.00,,,0.00,meteohub,2013-03-15 08:48:00,
2013-03-15 01:53:00,34.5,24.6,30.23,SE,135,0.0,1.0,67,0.00,,,0.00,meteohub,2013-03-15 08:53:00,
2013-03-15 01:58:00,34.5,24.6,30.23,SE,135,0.0,1.0,67,0.00,,,0.00,meteohub,2013-03-15 08:58:00,
2013-03-15 02:03:00,34.3,24.4,30.23,SE,135,0.0,1.0,67,0.00,,,0.00,meteohub,2013-03-15 09:03:00,
2013-03-15 02:08:00,34.3,24.8,30.24,SE,135,0.0,1.0,68,0.00,,,0.00,meteohub,2013-03-15 09:08:00,
2013-03-15 02:13:00,34.5,25.0,30.23,SE,135,1.0,1.0,68,0.00,,,0.00,meteohub,2013-03-15 09:13:00,
2013-03-15 02:18:00,34.0,24.6,30.23,SE,135,2.0,2.0,68,0.00,,,0.00,meteohub,2013-03-15 09:18:00,
2013-03-15 02:23:00,33.8,24.4,30.23,SE,135,1.0,2.0,68,0.00,,,0.00,meteohub,2013-03-15 09:23:00,
2013-03-15 02:28:00,34.2,24.6,30.23,SE,135,1.0,2.0,68,0.00,,,0.00,meteohub,2013-03-15 09:28:00,
2013-03-15 02:33:00,34.3,24.8,30.23,SE,135,0.0,2.0,68,0.00,,,0.00,meteohub,2013-03-15 09:33:00,
2013-03-15 02:38:00,34.7,25.2,30.23,SE,135,1.0,2.0,68,0.00,,,0.00,meteohub,2013-03-15 09:38:00,
2013-03-15 02:43:00,34.7,25.2,30.22,SE,135,1.0,2.0,68,0.00,,,0.00,meteohub,2013-03-15 09:43:00,
2013-03-15 02:48:00,34.7,25.2,30.22,SE,135,1.0,2.0,68,0.00,,,0.00,meteohub,2013-03-15 09:48:00,
2013-03-15 02:53:00,34.7,25.2,30.22,SE,135,1.0,2.0,68,0.00,,,0.00,meteohub,2013-03-15 09:53:00,
2013-03-15 02:59:00,34.5,25.0,30.22,SE,135,0.0,2.0,68,0.00,,,0.00,meteohub,2013-03-15 09:59:00,
2013-03-15 03:04:00,34.5,25.0,30.22,SE,135,0.0,2.0,68,0.00,,,0.00,meteohub,2013-03-15 10:04:00,
2013-03-15 03:09:00,34.3,25.2,30.22,SE,135,1.0,2.0,69,0.00,,,0.00,meteohub,2013-03-15 10:09:00,
2013-03-15 03:14:00,34.2,25.0,30.22,SE,135,0.0,1.0,69,0.00,,,0.00,meteohub,2013-03-15 10:14:00,
2013-03-15 03:19:00,34.2,25.0,30.21,SE,135,0.0,1.0,69,0.00,,,0.00,meteohub,2013-03-15 10:19:00,
2013-03-15 03:24:00,34.2,25.3,30.21,SE,135,1.0,1.0,70,0.00,,,0.00,meteohub,2013-03-15 10:24:00,
2013-03-15 03:29:00,34.2,25.3,30.21,SE,135,1.0,1.0,70,0.00,,,0.00,meteohub,2013-03-15 10:29:00,
2013-03-15 03:34:00,34.3,25.5,30.21,SE,135,1.0,1.0,70,0.00,,,0.00,meteohub,2013-03-15 10:34:00,
2013-03-15 03:39:00,34.2,25.3,30.21,SE,135,1.0,2.0,70,0.00,,,0.00,meteohub,2013-03-15 10:39:00,
2013-03-15 03:44:00,34.2,25.3,30.20,SE,135,1.0,2.0,70,0.00,,,0.00,meteohub,2013-03-15 10:44:00,
2013-03-15 03:49:00,34.0,25.2,30.21,SE,135,1.0,2.0,70,0.00,,,0.00,meteohub,2013-03-15 10:49:00,
2013-03-15 03:54:00,33.8,25.3,30.20,SE,135,2.0,2.0,71,0.00,,,0.00,meteohub,2013-03-15 10:54:00,
2013-03-15 03:59:00,33.6,24.8,30.20,SE,135,2.0,2.0,70,0.00,,,0.00,meteohub,2013-03-15 10:59:00,
2013-03-15 04:04:00,33.6,24.6,30.20,SE,135,2.0,3.0,69,0.00,,,0.00,meteohub,2013-03-15 11:04:00,
2013-03-15 04:09:00,33.8,24.4,30.20,SE,135,0.0,3.0,68,0.00,,,0.00,meteohub,2013-03-15 11:09:00,
2013-03-15 04:14:00,33.8,24.4,30.20,SE,135,1.0,3.0,68,0.00,,,0.00,meteohub,2013-03-15 11:14:00,
2013-03-15 04:19:00,33.8,24.8,30.20,SE,135,1.0,2.0,69,0.00,,,0.00,meteohub,2013-03-15 11:19:00,
2013-03-15 04:24:00,33.4,24.8,30.21,SE,135,2.0,2.0,70,0.00,,,0.00,meteohub,2013-03-15 11:24:00,
2013-03-15 04:29:00,33.4,24.8,30.20,SE,135,1.0,2.0,70,0.00,,,0.00,meteohub,2013-03-15 11:29:00,
2013-03-15 04:34:00,33.4,25.3,30.20,SE,135,2.0,3.0,72,0.00,,,0.00,meteohub,2013-03-15 11:34:00,
2013-03-15 04:39:00,33.4,25.3,30.20,SE,135,1.0,3.0,72,0.00,,,0.00,meteohub,2013-03-15 11:39:00,
2013-03-15 04:44:00,33.6,25.2,30.20,SE,135,0.0,2.0,71,0.00,,,0.00,meteohub,2013-03-15 11:44:00,
2013-03-15 04:49:00,33.6,25.5,30.19,SE,135,1.0,2.0,72,0.00,,,0.00,meteohub,2013-03-15 11:49:00,
2013-03-15 04:54:00,33.6,25.5,30.19,SE,135,1.0,2.0,72,0.00,,,0.00,meteohub,2013-03-15 11:54:00,
2013-03-15 04:59:00,33.6,25.5,30.19,SE,135,1.0,2.0,72,0.00,,,0.00,meteohub,2013-03-15 11:59:00,
2013-03-15 05:04:00,33.6,25.9,30.20,SSW,203,2.0,2.0,73,0.00,,,0.00,meteohub,2013-03-15 12:04:00,
2013-03-15 05:09:00,33.6,26.2,30.20,SSW,203,1.0,2.0,74,0.00,,,0.00,meteohub,2013-03-15 12:09:00,
2013-03-15 05:14:00,33.4,25.7,30.20,SSW,203,2.0,2.0,73,0.00,,,0.00,meteohub,2013-03-15 12:14:00,
2013-03-15 05:19:00,33.4,26.1,30.20,ESE,113,2.0,2.0,74,0.00,,,0.00,meteohub,2013-03-15 12:19:00,
2013-03-15 05:24:00,33.3,25.2,30.19,ESE,113,2.0,2.0,72,0.00,,,0.00,meteohub,2013-03-15 12:24:00,
2013-03-15 05:29:00,33.3,25.9,30.19,ESE,113,1.0,2.0,74,0.00,,,0.00,meteohub,2013-03-15 12:29:00,
2013-03-15 05:34:00,33.3,25.5,30.19,ESE,113,1.0,3.0,73,0.00,,,0.00,meteohub,2013-03-15 12:34:00,
2013-03-15 05:40:00,33.3,25.9,30.19,ESE,113,0.0,3.0,74,0.00,,,0.00,meteohub,2013-03-15 12:40:00,
2013-03-15 05:45:00,33.4,26.1,30.20,ESE,113,2.0,2.0,74,0.00,,,0.00,meteohub,2013-03-15 12:45:00,
2013-03-15 05:50:00,33.4,26.1,30.20,SE,135,1.0,3.0,74,0.00,,,0.00,meteohub,2013-03-15 12:50:00,
2013-03-15 05:55:00,33.4,26.1,30.19,SE,135,2.0,3.0,74,0.00,,,0.00,meteohub,2013-03-15 12:55:00,
2013-03-15 06:00:00,33.4,26.1,30.20,SE,135,1.0,3.0,74,0.00,,,0.00,meteohub,2013-03-15 13:00:00,
2013-03-15 06:05:00,33.4,26.1,30.19,SE,135,2.0,2.0,74,0.00,,,0.00,meteohub,2013-03-15 13:05:00,
2013-03-15 06:10:00,33.8,26.1,30.20,SE,135,0.0,3.0,73,0.00,,,0.00,meteohub,2013-03-15 13:10:00,
2013-03-15 06:15:00,33.8,26.4,30.20,SE,135,2.0,3.0,74,0.00,,,0.00,meteohub,2013-03-15 13:15:00,
2013-03-15 06:20:00,33.4,25.7,30.20,SE,135,3.0,3.0,73,0.00,,,0.00,meteohub,2013-03-15 13:20:00,
2013-03-15 06:25:00,33.3,25.5,30.20,SE,135,2.0,3.0,73,0.00,,,0.00,meteohub,2013-03-15 13:25:00,
2013-03-15 06:30:00,33.3,25.9,30.19,SE,135,2.0,3.0,74,0.00,,,0.00,meteohub,2013-03-15 13:30:00,
2013-03-15 06:35:00,33.3,25.9,30.20,SE,135,2.0,3.0,74,0.00,,,0.00,meteohub,2013-03-15 13:35:00,
2013-03-15 06:40:00,33.1,25.3,30.20,SE,135,0.0,2.0,73,0.00,,,0.00,meteohub,2013-03-15 13:40:00,
2013-03-15 06:45:00,33.1,25.7,30.20,SE,135,1.0,2.0,74,0.00,,,0.00,meteohub,2013-03-15 13:45:00,
2013-03-15 06:50:00,32.9,25.9,30.20,SE,135,2.0,2.0,75,0.00,,,0.00,meteohub,2013-03-15 13:50:00,
2013-03-15 06:55:00,33.1,26.4,30.20,SE,135,2.0,2.0,76,0.00,,,0.00,meteohub,2013-03-15 13:55:00,
2013-03-15 07:00:00,33.1,26.4,30.20,SE,135,1.0,2.0,76,0.00,,,0.00,meteohub,2013-03-15 14:00:00,
2013-03-15 07:05:00,33.1,26.6,30.20,SE,135,1.0,2.0,77,0.00,,,0.00,meteohub,2013-03-15 14:05:00,
2013-03-15 07:10:00,33.3,26.8,30.20,SE,135,1.0,2.0,77,0.00,,,0.00,meteohub,2013-03-15 14:10:00,
2013-03-15 07:15:00,33.6,27.1,30.21,SE,135,1.0,2.0,77,0.00,,,0.00,meteohub,2013-03-15 14:15:00,
2013-03-15 07:20:00,33.8,27.7,30.20,SE,135,1.0,2.0,78,0.00,,,0.00,meteohub,2013-03-15 14:20:00,
2013-03-15 07:25:00,34.0,27.5,30.20,SE,135,2.0,2.0,77,0.00,,,0.00,meteohub,2013-03-15 14:25:00,
2013-03-15 07:30:00,34.2,27.7,30.20,SE,135,1.0,2.0,77,0.00,,,0.00,meteohub,2013-03-15 14:30:00,
2013-03-15 07:35:00,34.5,28.0,30.20,SE,135,2.0,2.0,77,0.00,,,0.00,meteohub,2013-03-15 14:35:00,
2013-03-15 07:40:00,35.2,28.8,30.20,SE,135,1.0,2.0,77,0.00,,,0.00,meteohub,2013-03-15 14:40:00,
2013-03-15 07:45:00,36.0,29.1,30.21,SE,135,1.0,2.0,76,0.00,,,0.00,meteohub,2013-03-15 14:45:00,
2013-03-15 07:50:00,36.1,28.6,30.20,SE,135,1.0,2.0,74,0.00,,,0.00,meteohub,2013-03-15 14:50:00,
2013-03-15 07:55:00,36.5,28.9,30.21,SE,135,1.0,2.0,74,0.00,,,0.00,meteohub,2013-03-15 14:55:00,
2013-03-15 08:00:00,36.7,29.1,30.20,SE,135,1.0,2.0,74,0.00,,,0.00,meteohub,2013-03-15 15:00:00,
2013-03-15 08:05:00,37.2,29.7,30.21,SE,135,0.0,2.0,74,0.00,,,0.00,meteohub,2013-03-15 15:05:00,
2013-03-15 08:10:00,37.6,30.0,30.21,SE,135,0.0,2.0,74,0.00,,,0.00,meteohub,2013-03-15 15:10:00,
2013-03-15 08:15:00,38.1,30.6,30.21,SE,135,0.0,2.0,74,0.00,,,0.00,meteohub,2013-03-15 15:15:00,
2013-03-15 08:20:00,38.3,30.4,30.21,SE,135,0.0,2.0,73,0.00,,,0.00,meteohub,2013-03-15 15:20:00,
2013-03-15 08:25:00,38.7,30.7,30.21,SE,135,1.0,0.0,73,0.00,,,0.00,meteohub,2013-03-15 15:25:00,
2013-03-15 08:30:00,39.0,31.1,30.21,SE,135,0.0,2.0,73,0.00,,,0.00,meteohub,2013-03-15 15:30:00,
2013-03-15 08:35:00,39.2,31.3,30.22,SE,135,1.0,2.0,73,0.00,,,0.00,meteohub,2013-03-15 15:35:00,
2013-03-15 08:40:00,39.6,31.6,30.22,SE,135,1.0,2.0,73,0.00,,,0.00,meteohub,2013-03-15 15:40:00,
2013-03-15 08:45:00,40.1,32.5,30.22,SE,135,0.0,2.0,74,0.00,,,0.00,meteohub,2013-03-15 15:45:00,
2013-03-15 08:50:00,41.0,33.4,30.22,SE,135,0.0,2.0,74,0.00,,,0.00,meteohub,2013-03-15 15:50:00,
2013-03-15 08:55:00,42.1,34.0,30.22,SE,135,2.0,2.0,73,0.00,,,0.00,meteohub,2013-03-15 15:55:00,
2013-03-15 09:00:00,43.5,35.1,30.22,SE,135,1.0,2.0,72,0.00,,,0.00,meteohub,2013-03-15 16:00:00,
2013-03-15 09:05:00,44.1,34.9,30.22,SE,135,1.0,2.0,70,0.00,,,0.00,meteohub,2013-03-15 16:05:00,
2013-03-15 09:10:00,44.6,35.4,30.22,SE,135,1.0,2.0,70,0.00,,,0.00,meteohub,2013-03-15 16:10:00,
2013-03-15 09:15:00,45.3,35.8,30.22,SE,135,1.0,2.0,69,0.00,,,0.00,meteohub,2013-03-15 16:15:00,
2013-03-15 09:20:00,46.0,36.1,30.22,SE,135,1.0,2.0,68,0.00,,,0.00,meteohub,2013-03-15 16:20:00,
2013-03-15 09:25:00,47.3,36.9,30.22,SE,135,0.0,2.0,67,0.00,,,0.00,meteohub,2013-03-15 16:25:00,
2013-03-15 09:30:00,48.7,37.6,30.22,SE,135,1.0,2.0,65,0.00,,,0.00,meteohub,2013-03-15 16:30:00,
2013-03-15 09:35:00,49.6,37.6,30.22,SE,135,1.0,2.0,63,0.00,,,0.00,meteohub,2013-03-15 16:35:00,
2013-03-15 09:40:00,50.7,37.4,30.22,SE,135,1.0,2.0,60,0.00,,,0.00,meteohub,2013-03-15 16:40:00,
2013-03-15 09:45:00,52.0,37.6,30.22,SE,135,1.0,2.0,58,0.00,,,0.00,meteohub,2013-03-15 16:45:00,
2013-03-15 09:50:00,52.7,36.5,30.22,SE,135,1.0,2.0,54,0.00,,,0.00,meteohub,2013-03-15 16:50:00,
2013-03-15 09:55:00,53.4,36.3,30.22,SE,135,1.0,2.0,52,0.00,,,0.00,meteohub,2013-03-15 16:55:00,
2013-03-15 10:00:00,54.0,34.2,30.22,SE,135,2.0,2.0,47,0.00,,,0.00,meteohub,2013-03-15 17:00:00,
2013-03-15 10:05:00,54.1,34.3,30.22,SE,135,2.0,2.0,47,0.00,,,0.00,meteohub,2013-03-15 17:05:00,
2013-03-15 10:11:00,54.5,34.7,30.22,SE,135,1.0,2.0,47,0.00,,,0.00,meteohub,2013-03-15 17:11:00,
2013-03-15 10:16:00,55.0,35.2,30.22,SE,135,2.0,2.0,47,0.00,,,0.00,meteohub,2013-03-15 17:16:00,
2013-03-15 10:21:00,56.1,35.1,30.22,SE,135,1.0,2.0,45,0.00,,,0.00,meteohub,2013-03-15 17:21:00,
2013-03-15 10:26:00,57.6,35.2,30.22,SE,135,2.0,2.0,43,0.00,,,0.00,meteohub,2013-03-15 17:26:00,
2013-03-15 10:31:00,59.0,35.4,30.22,West,270,2.0,2.0,41,0.00,,,0.00,meteohub,2013-03-15 17:31:00,
2013-03-15 10:36:00,60.1,35.1,30.22,West,270,2.0,2.0,39,0.00,,,0.00,meteohub,2013-03-15 17:36:00,
2013-03-15 10:41:00,60.8,35.6,30.22,West,270,2.0,3.0,39,0.00,,,0.00,meteohub,2013-03-15 17:41:00,
2013-03-15 10:46:00,61.2,34.7,30.22,West,270,2.0,3.0,37,0.00,,,0.00,meteohub,2013-03-15 17:46:00,
2013-03-15 10:51:00,61.5,35.1,30.22,West,270,1.0,2.0,37,0.00,,,0.00,meteohub,2013-03-15 17:51:00,
2013-03-15 10:56:00,61.5,33.6,30.21,West,270,1.0,2.0,35,0.00,,,0.00,meteohub,2013-03-15 17:56:00,
2013-03-15 11:02:00,61.5,33.6,30.21,West,270,2.0,2.0,35,0.00,,,0.00,meteohub,2013-03-15 18:02:00,
2013-03-15 11:07:00,61.5,32.9,30.22,SW,225,2.0,2.0,34,0.00,,,0.00,meteohub,2013-03-15 18:07:00,
2013-03-15 11:12:00,62.1,31.8,30.21,East,90,3.0,3.0,32,0.00,,,0.00,meteohub,2013-03-15 18:12:00,
2013-03-15 11:17:00,63.0,31.1,30.21,SW,225,3.0,4.0,30,0.00,,,0.00,meteohub,2013-03-15 18:17:00,
2013-03-15 11:22:00,63.5,30.7,30.21,SW,225,2.0,4.0,29,0.00,,,0.00,meteohub,2013-03-15 18:22:00,
2013-03-15 11:27:00,64.0,31.1,30.21,West,270,2.0,4.0,29,0.00,,,0.00,meteohub,2013-03-15 18:27:00,
2013-03-15 11:32:00,64.0,27.5,30.22,West,270,3.0,4.0,25,0.00,,,0.00,meteohub,2013-03-15 18:32:00,
2013-03-15 11:37:00,64.2,28.6,30.21,North,0,3.0,4.0,26,0.00,,,0.00,meteohub,2013-03-15 18:37:00,
2013-03-15 11:42:00,64.2,28.6,30.21,SSW,203,2.0,4.0,26,0.00,,,0.00,meteohub,2013-03-15 18:42:00,
2013-03-15 11:47:00,64.2,27.7,30.21,West,270,2.0,4.0,25,0.00,,,0.00,meteohub,2013-03-15 18:47:00,
2013-03-15 11:52:00,64.4,26.8,30.21,West,270,7.0,7.0,24,0.00,,,0.00,meteohub,2013-03-15 18:52:00,
2013-03-15 11:57:00,64.2,26.6,30.21,East,90,4.0,7.0,24,0.00,,,0.00,meteohub,2013-03-15 18:57:00,
2013-03-15 12:02:00,64.2,23.5,30.21,NW,315,5.0,7.0,21,0.00,,,0.00,meteohub,2013-03-15 19:02:00,
2013-03-15 12:07:00,64.8,26.1,30.21,SSW,203,2.0,8.0,23,0.00,,,0.00,meteohub,2013-03-15 19:07:00,
2013-03-15 12:12:00,66.2,25.2,30.21,West,270,4.0,8.0,21,0.00,,,0.00,meteohub,2013-03-15 19:12:00,
2013-03-15 12:17:00,66.9,26.8,30.21,SW,225,3.0,6.0,22,0.00,,,0.00,meteohub,2013-03-15 19:17:00,
2013-03-15 12:22:00,68.2,27.9,30.20,East,90,3.0,6.0,22,0.00,,,0.00,meteohub,2013-03-15 19:22:00,
2013-03-15 12:27:00,69.1,28.6,30.20,SW,225,1.0,6.0,22,0.00,,,0.00,meteohub,2013-03-15 19:27:00,
2013-03-15 12:32:00,69.4,27.9,30.20,West,270,2.0,4.0,21,0.00,,,0.00,meteohub,2013-03-15 19:32:00,
2013-03-15 12:37:00,70.2,27.1,30.20,East,90,4.0,5.0,20,0.00,,,0.00,meteohub,2013-03-15 19:37:00,
2013-03-15 12:42:00,69.8,27.0,30.19,West,270,4.0,5.0,20,0.00,,,0.00,meteohub,2013-03-15 19:42:00,
2013-03-15 12:47:00,69.8,27.0,30.20,North,0,3.0,8.0,20,0.00,,,0.00,meteohub,2013-03-15 19:47:00,
2013-03-15 12:52:00,70.0,28.2,30.19,SW,225,2.0,8.0,21,0.00,,,0.00,meteohub,2013-03-15 19:52:00,
2013-03-15 12:57:00,70.3,27.3,30.20,South,180,4.0,8.0,20,0.00,,,0.00,meteohub,2013-03-15 19:57:00,
2013-03-15 13:02:00,70.3,27.3,30.19,NE,45,2.0,7.0,20,0.00,,,0.00,meteohub,2013-03-15 20:02:00,
2013-03-15 13:07:00,70.7,26.4,30.19,SW,225,4.0,6.0,19,0.00,,,0.00,meteohub,2013-03-15 20:07:00,
2013-03-15 13:12:00,70.9,27.9,30.19,South,180,3.0,8.0,20,0.00,,,0.00,meteohub,2013-03-15 20:12:00,
2013-03-15 13:17:00,70.7,26.4,30.19,West,270,3.0,8.0,19,0.00,,,0.00,meteohub,2013-03-15 20:17:00,
2013-03-15 13:22:00,70.3,26.1,30.19,West,270,4.0,5.0,19,0.00,,,0.00,meteohub,2013-03-15 20:22:00,
2013-03-15 13:27:00,70.5,26.2,30.19,SW,225,2.0,5.0,19,0.00,,,0.00,meteohub,2013-03-15 20:27:00,
2013-03-15 13:32:00,70.9,26.6,30.19,East,90,4.0,5.0,19,0.00,,,0.00,meteohub,2013-03-15 20:32:00,
2013-03-15 13:37:00,71.1,24.1,30.18,NE,45,4.0,5.0,17,0.00,,,0.00,meteohub,2013-03-15 20:37:00,
2013-03-15 13:42:00,71.4,25.7,30.18,South,180,3.0,5.0,18,0.00,,,0.00,meteohub,2013-03-15 20:42:00,
2013-03-15 13:47:00,71.6,25.9,30.17,West,270,2.0,5.0,18,0.00,,,0.00,meteohub,2013-03-15 20:47:00,
2013-03-15 13:52:00,71.6,24.4,30.17,South,180,4.0,6.0,17,0.00,,,0.00,meteohub,2013-03-15 20:52:00,
2013-03-15 13:57:00,71.8,26.1,30.17,South,180,4.0,6.0,18,0.00,,,0.00,meteohub,2013-03-15 20:57:00,
2013-03-15 14:02:00,72.5,25.2,30.17,WSW,248,3.0,5.0,17,0.00,,,0.00,meteohub,2013-03-15 21:02:00,
2013-03-15 14:07:00,70.9,22.5,30.17,North,0,4.0,6.0,16,0.00,,,0.00,meteohub,2013-03-15 21:07:00,
2013-03-15 14:13:00,70.5,22.1,30.16,West,270,4.0,6.0,16,0.00,,,0.00,meteohub,2013-03-15 21:13:00,
2013-03-15 14:18:00,70.0,23.2,30.17,SW,225,4.0,6.0,17,0.00,,,0.00,meteohub,2013-03-15 21:18:00,
2013-03-15 14:23:00,69.4,21.2,30.17,North,0,7.0,7.0,16,0.00,,,0.00,meteohub,2013-03-15 21:23:00,
2013-03-15 14:28:00,69.4,21.2,30.16,South,180,4.0,7.0,16,0.00,,,0.00,meteohub,2013-03-15 21:28:00,
2013-03-15 14:33:00,68.9,20.8,30.16,North,0,3.0,7.0,16,0.00,,,0.00,meteohub,2013-03-15 21:33:00,
2013-03-15 14:38:00,69.1,21.0,30.17,WSW,248,5.0,7.0,16,0.00,,,0.00,meteohub,2013-03-15 21:38:00,
2013-03-15 14:43:00,68.5,20.5,30.17,South,180,3.0,6.0,16,0.00,,,0.00,meteohub,2013-03-15 21:43:00,
2013-03-15 14:48:00,68.9,22.3,30.16,SW,225,4.0,9.0,17,0.00,,,0.00,meteohub,2013-03-15 21:48:00,
2013-03-15 14:53:00,69.1,21.0,30.16,South,180,4.0,9.0,16,0.00,,,0.00,meteohub,2013-03-15 21:53:00,
2013-03-15 14:58:00,69.1,22.5,30.16,SSE,158,4.0,9.0,17,0.00,,,0.00,meteohub,2013-03-15 21:58:00,
2013-03-15 15:03:00,69.4,19.8,30.16,West,270,4.0,7.0,15,0.00,,,0.00,meteohub,2013-03-15 22:03:00,
2013-03-15 15:08:00,69.1,21.0,30.16,West,270,4.0,8.0,16,0.00,,,0.00,meteohub,2013-03-15 22:08:00,
2013-03-15 15:13:00,68.2,18.7,30.16,NE,45,6.0,8.0,15,0.00,,,0.00,meteohub,2013-03-15 22:13:00,
2013-03-15 15:18:00,66.6,19.0,30.15,West,270,2.0,8.0,16,0.00,,,0.00,meteohub,2013-03-15 22:18:00,
2013-03-15 15:23:00,65.8,16.9,30.15,East,90,2.0,8.0,15,0.00,,,0.00,meteohub,2013-03-15 22:23:00,
2013-03-15 15:28:00,65.8,18.3,30.15,SW,225,8.0,8.0,16,0.00,,,0.00,meteohub,2013-03-15 22:28:00,
2013-03-15 15:33:00,65.7,16.7,30.15,West,270,4.0,8.0,15,0.00,,,0.00,meteohub,2013-03-15 22:33:00,
2013-03-15 15:38:00,65.3,18.0,30.15,NE,45,3.0,8.0,16,0.00,,,0.00,meteohub,2013-03-15 22:38:00,
2013-03-15 15:43:00,64.6,17.4,30.16,West,270,6.0,8.0,16,0.00,,,0.00,meteohub,2013-03-15 22:43:00,
2013-03-15 15:48:00,64.4,17.2,30.16,SE,135,4.0,8.0,16,0.00,,,0.00,meteohub,2013-03-15 22:48:00,
2013-03-15 15:53:00,64.2,18.5,30.15,East,90,4.0,8.0,17,0.00,,,0.00,meteohub,2013-03-15 22:53:00,
2013-03-15 15:58:00,63.7,18.0,30.15,East,90,4.0,6.0,17,0.00,,,0.00,meteohub,2013-03-15 22:58:00,
2013-03-15 16:03:00,63.5,18.0,30.15,NW,315,7.0,7.0,17,0.00,,,0.00,meteohub,2013-03-15 23:03:00,
2013-03-15 16:08:00,63.1,17.6,30.15,East,90,5.0,8.0,17,0.00,,,0.00,meteohub,2013-03-15 23:08:00,
2013-03-15 16:13:00,62.8,18.7,30.15,NE,45,2.0,8.0,18,0.00,,,0.00,meteohub,2013-03-15 23:13:00,
2013-03-15 16:18:00,62.6,19.8,30.15,South,180,5.0,8.0,19,0.00,,,0.00,meteohub,2013-03-15 23:18:00,
2013-03-15 16:23:00,62.4,19.6,30.15,SW,225,4.0,5.0,19,0.00,,,0.00,meteohub,2013-03-15 23:23:00,
2013-03-15 16:28:00,62.1,19.2,30.15,SSW,203,4.0,5.0,19,0.00,,,0.00,meteohub,2013-03-15 23:28:00,
2013-03-15 16:33:00,61.9,19.2,30.15,South,180,3.0,5.0,19,0.00,,,0.00,meteohub,2013-03-15 23:33:00,
2013-03-15 16:38:00,61.5,20.1,30.15,West,270,3.0,6.0,20,0.00,,,0.00,meteohub,2013-03-15 23:38:00,
2013-03-15 16:43:00,61.2,16.0,30.15,SW,225,4.0,6.0,17,0.00,,,0.00,meteohub,2013-03-15 23:43:00,
2013-03-15 16:48:00,61.0,17.2,30.15,North,0,3.0,6.0,18,0.00,,,0.00,meteohub,2013-03-15 23:48:00,
2013-03-15 16:53:00,60.6,19.4,30.14,West,270,2.0,4.0,20,0.00,,,0.00,meteohub,2013-03-15 23:53:00,
2013-03-15 16:58:00,60.4,19.2,30.14,WNW,293,2.0,7.0,20,0.00,,,0.00,meteohub,2013-03-15 23:58:00,
2013-03-15 17:03:00,60.3,19.0,30.14,West,270,2.0,7.0,20,0.00,,,0.00,meteohub,2013-03-16 00:03:00,
2013-03-15 17:08:00,60.1,17.6,30.14,North,0,6.0,7.0,19,0.00,,,0.00,meteohub,2013-03-16 00:08:00,
2013-03-15 17:13:00,59.9,18.7,30.14,West,270,2.0,8.0,20,0.00,,,0.00,meteohub,2013-03-16 00:13:00,
2013-03-15 17:18:00,59.9,18.7,30.14,West,270,3.0,8.0,20,0.00,,,0.00,meteohub,2013-03-16 00:18:00,
2013-03-15 17:23:00,59.7,18.5,30.14,West,270,2.0,8.0,20,0.00,,,0.00,meteohub,2013-03-16 00:23:00,
2013-03-15 17:28:00,59.5,18.5,30.15,South,180,2.0,4.0,20,0.00,,,0.00,meteohub,2013-03-16 00:28:00,
2013-03-15 17:33:00,59.2,18.1,30.14,West,270,3.0,4.0,20,0.00,,,0.00,meteohub,2013-03-16 00:33:00,
2013-03-15 17:38:00,58.6,17.6,30.14,South,180,2.0,3.0,20,0.00,,,0.00,meteohub,2013-03-16 00:38:00,
2013-03-15 17:43:00,58.1,18.3,30.14,South,180,2.0,4.0,21,0.00,,,0.00,meteohub,2013-03-16 00:43:00,
2013-03-15 17:48:00,57.7,18.1,30.14,North,0,2.0,4.0,21,0.00,,,0.00,meteohub,2013-03-16 00:48:00,
2013-03-15 17:53:00,57.6,18.0,30.14,NE,45,2.0,5.0,21,0.00,,,0.00,meteohub,2013-03-16 00:53:00,
2013-03-15 17:58:00,57.6,19.0,30.14,NW,315,3.0,6.0,22,0.00,,,0.00,meteohub,2013-03-16 00:58:00,
2013-03-15 18:03:00,57.4,18.9,30.14,WNW,293,1.0,6.0,22,0.00,,,0.00,meteohub,2013-03-16 01:03:00,
2013-03-15 18:08:00,57.0,19.6,30.14,WNW,293,1.0,6.0,23,0.00,,,0.00,meteohub,2013-03-16 01:08:00,
2013-03-15 18:13:00,56.5,19.0,30.14,South,180,4.0,4.0,23,0.00,,,0.00,meteohub,2013-03-16 01:13:00,
2013-03-15 18:18:00,56.1,19.8,30.14,NW,315,2.0,4.0,24,0.00,,,0.00,meteohub,2013-03-16 01:18:00,
2013-03-15 18:23:00,55.8,18.5,30.14,WNW,293,1.0,4.0,23,0.00,,,0.00,meteohub,2013-03-16 01:23:00,
2013-03-15 18:28:00,55.4,19.2,30.13,WNW,293,2.0,4.0,24,0.00,,,0.00,meteohub,2013-03-16 01:28:00,
2013-03-15 18:33:00,54.9,19.8,30.14,WNW,293,1.0,4.0,25,0.00,,,0.00,meteohub,2013-03-16 01:33:00,
2013-03-15 18:39:00,54.5,20.3,30.13,North,0,4.0,4.0,26,0.00,,,0.00,meteohub,2013-03-16 01:39:00,
2013-03-15 18:44:00,54.1,20.8,30.13,North,0,2.0,4.0,27,0.00,,,0.00,meteohub,2013-03-16 01:44:00,
2013-03-15 18:49:00,53.8,21.4,30.14,North,0,1.0,4.0,28,0.00,,,0.00,meteohub,2013-03-16 01:49:00,
2013-03-15 18:54:00,53.2,21.7,30.14,North,0,2.0,4.0,29,0.00,,,0.00,meteohub,2013-03-16 01:54:00,
2013-03-15 19:02:00,52.5,20.3,30.13,North,0,1.0,3.0,28,0.00,,,0.00,meteohub,2013-03-16 02:02:00,
2013-03-15 19:07:00,52.2,20.8,30.13,North,0,1.0,3.0,29,0.00,,,0.00,meteohub,2013-03-16 02:07:00,
2013-03-15 19:12:00,51.8,22.8,30.13,North,0,1.0,2.0,32,0.00,,,0.00,meteohub,2013-03-16 02:12:00,
2013-03-15 19:17:00,51.3,22.5,30.13,North,0,1.0,2.0,32,0.00,,,0.00,meteohub,2013-03-16 02:17:00,
2013-03-15 19:22:00,50.9,23.5,30.13,North,0,1.0,2.0,34,0.00,,,0.00,meteohub,2013-03-16 02:22:00,
2013-03-15 19:27:00,50.2,25.0,30.13,North,0,1.0,2.0,37,0.00,,,0.00,meteohub,2013-03-16 02:27:00,
2013-03-15 19:32:00,48.7,26.6,30.13,North,0,2.0,2.0,42,0.00,,,0.00,meteohub,2013-03-16 02:32:00,
2013-03-15 19:37:00,47.5,26.1,30.13,North,0,2.0,2.0,43,0.00,,,0.00,meteohub,2013-03-16 02:37:00,
2013-03-15 19:42:00,46.6,25.9,30.13,North,0,2.0,2.0,44,0.00,,,0.00,meteohub,2013-03-16 02:42:00,
2013-03-15 19:47:00,45.1,25.0,30.13,SW,225,2.0,2.0,45,0.00,,,0.00,meteohub,2013-03-16 02:47:00,
2013-03-15 19:52:00,44.6,25.7,30.13,SW,225,2.0,2.0,47,0.00,,,0.00,meteohub,2013-03-16 02:52:00,
2013-03-15 19:57:00,44.4,26.4,30.13,SW,225,1.0,2.0,49,0.00,,,0.00,meteohub,2013-03-16 02:57:00,
2013-03-15 20:02:00,43.9,25.9,30.13,East,90,2.0,2.0,49,0.00,,,0.00,meteohub,2013-03-16 03:02:00,
2013-03-15 20:07:00,43.2,25.7,30.14,East,90,2.0,2.0,50,0.00,,,0.00,meteohub,2013-03-16 03:07:00,
2013-03-15 20:12:00,42.8,25.9,30.14,East,90,1.0,2.0,51,0.00,,,0.00,meteohub,2013-03-16 03:12:00,
2013-03-15 20:22:00,41.9,25.5,30.13,East,90,0.0,2.0,52,0.00,,,0.00,meteohub,2013-03-16 03:22:00,
2013-03-15 20:27:00,41.7,25.3,30.13,East,90,1.0,2.0,52,0.00,,,0.00,meteohub,2013-03-16 03:27:00,
2013-03-15 20:32:00,41.4,25.5,30.13,East,90,1.0,2.0,53,0.00,,,0.00,meteohub,2013-03-16 03:32:00,
2013-03-15 20:37:00,41.0,25.2,30.14,East,90,2.0,2.0,53,0.00,,,0.00,meteohub,2013-03-16 03:37:00,
2013-03-15 20:42:00,40.8,25.0,30.13,East,90,0.0,2.0,53,0.00,,,0.00,meteohub,2013-03-16 03:42:00,
2013-03-15 20:47:00,40.8,25.0,30.13,East,90,2.0,2.0,53,0.00,,,0.00,meteohub,2013-03-16 03:47:00,
2013-03-15 20:52:00,41.0,25.2,30.13,NE,45,1.0,2.0,53,0.00,,,0.00,meteohub,2013-03-16 03:52:00,
2013-03-15 20:57:00,41.2,24.4,30.13,SE,135,1.0,2.0,51,0.00,,,0.00,meteohub,2013-03-16 03:57:00,
2013-03-15 21:00:00,41.4,24.6,30.13,SE,135,2.0,2.0,51,0.00,,,0.00,meteohub,2013-03-16 04:00:00,
2013-03-15 21:07:00,41.9,25.2,30.13,SE,135,2.0,3.0,51,0.00,,,0.00,meteohub,2013-03-16 04:07:00,
2013-03-15 21:12:00,42.1,25.7,30.13,South,180,1.0,3.0,52,0.00,,,0.00,meteohub,2013-03-16 04:12:00,
2013-03-15 21:17:00,42.1,25.7,30.13,North,0,2.0,3.0,52,0.00,,,0.00,meteohub,2013-03-16 04:17:00,
2013-03-15 21:22:00,41.7,25.9,30.13,North,0,1.0,3.0,53,0.00,,,0.00,meteohub,2013-03-16 04:22:00,
2013-03-15 21:27:00,41.7,25.3,30.13,North,0,0.0,3.0,52,0.00,,,0.00,meteohub,2013-03-16 04:27:00,
2013-03-15 21:32:00,41.5,25.7,30.13,North,0,1.0,2.0,53,0.00,,,0.00,meteohub,2013-03-16 04:32:00,
2013-03-15 21:37:00,41.5,26.1,30.13,North,0,1.0,2.0,54,0.00,,,0.00,meteohub,2013-03-16 04:37:00,
2013-03-15 21:42:00,41.5,27.0,30.13,North,0,2.0,2.0,56,0.00,,,0.00,meteohub,2013-03-16 04:42:00,
2013-03-15 21:47:00,41.4,27.3,30.13,North,0,1.0,2.0,57,0.00,,,0.00,meteohub,2013-03-16 04:47:00,
2013-03-15 21:52:00,41.4,26.8,30.13,South,180,1.0,2.0,56,0.00,,,0.00,meteohub,2013-03-16 04:52:00,
2013-03-15 21:57:00,41.2,27.1,30.13,NNE,23,2.0,2.0,57,0.00,,,0.00,meteohub,2013-03-16 04:57:00,
2013-03-15 22:02:00,41.2,26.6,30.13,NE,45,3.0,3.0,56,0.00,,,0.00,meteohub,2013-03-16 05:02:00,
2013-03-15 22:07:00,41.4,26.4,30.12,NE,45,0.0,3.0,55,0.00,,,0.00,meteohub,2013-03-16 05:07:00,
2013-03-15 22:12:00,41.5,26.6,30.12,NE,45,2.0,3.0,55,0.00,,,0.00,meteohub,2013-03-16 05:12:00,
2013-03-15 22:17:00,41.5,26.1,30.13,NE,45,2.0,3.0,54,0.00,,,0.00,meteohub,2013-03-16 05:17:00,
2013-03-15 22:22:00,41.9,26.1,30.13,SW,225,0.0,2.0,53,0.00,,,0.00,meteohub,2013-03-16 05:22:00,
2013-03-15 22:27:00,42.1,26.2,30.13,SW,225,2.0,2.0,53,0.00,,,0.00,meteohub,2013-03-16 05:27:00,
2013-03-15 22:32:00,42.3,26.4,30.13,SSE,158,2.0,2.0,53,0.00,,,0.00,meteohub,2013-03-16 05:32:00,
2013-03-15 22:37:00,42.4,26.1,30.12,South,180,1.0,4.0,52,0.00,,,0.00,meteohub,2013-03-16 05:37:00,
2013-03-15 22:42:00,42.6,25.3,30.13,NE,45,2.0,4.0,50,0.00,,,0.00,meteohub,2013-03-16 05:42:00,
2013-03-15 22:47:00,42.8,25.5,30.12,NE,45,2.0,4.0,50,0.00,,,0.00,meteohub,2013-03-16 05:47:00,
2013-03-15 22:52:00,43.2,25.3,30.12,NE,45,0.0,3.0,49,0.00,,,0.00,meteohub,2013-03-16 05:52:00,
2013-03-15 22:57:00,43.3,25.5,30.12,NE,45,0.0,2.0,49,0.00,,,0.00,meteohub,2013-03-16 05:57:00,
2013-03-15 23:02:00,43.5,25.2,30.12,NE,45,0.0,2.0,48,0.00,,,0.00,meteohub,2013-03-16 06:02:00,
2013-03-15 23:07:00,43.5,25.2,30.12,NE,45,0.0,2.0,48,0.00,,,0.00,meteohub,2013-03-16 06:07:00,
2013-03-15 23:12:00,43.3,25.5,30.12,NE,45,2.0,2.0,49,0.00,,,0.00,meteohub,2013-03-16 06:12:00,
2013-03-15 23:17:00,43.0,25.7,30.12,NE,45,1.0,2.0,50,0.00,,,0.00,meteohub,2013-03-16 06:17:00,
2013-03-15 23:22:00,42.4,25.2,30.12,NE,45,1.0,2.0,50,0.00,,,0.00,meteohub,2013-03-16 06:22:00,
2013-03-15 23:27:00,41.9,25.5,30.12,NE,45,1.0,2.0,52,0.00,,,0.00,meteohub,2013-03-16 06:27:00,
2013-03-15 23:33:00,41.4,25.5,30.12,NE,45,0.0,2.0,53,0.00,,,0.00,meteohub,2013-03-16 06:33:00,
2013-03-15 23:38:00,40.8,25.5,30.12,NE,45,1.0,2.0,54,0.00,,,0.00,meteohub,2013-03-16 06:38:00,
2013-03-15 23:43:00,40.3,25.3,30.12,NE,45,1.0,2.0,55,0.00,,,0.00,meteohub,2013-03-16 06:43:00,
2013-03-15 23:48:00,39.9,25.5,30.12,NE,45,1.0,1.0,56,0.00,,,0.00,meteohub,2013-03-16 06:48:00,
2013-03-15 23:53:00,39.6,25.2,30.11,NE,45,1.0,1.0,56,0.00,,,0.00,meteohub,2013-03-16 06:53:00,
2013-03-15 23:58:00,39.4,25.0,30.12,NE,45,1.0,2.0,56,0.00,,,0.00,meteohub,2013-03-16 06:58:00,